QPF
0.08 0.07 0.05 0.02 0.01 0.00 0.00 0.00 0.00 0.00 0.00 0.00 0.00 0.00 0.00 0.00 0.00 0.00 0.00 0.00 0.00 0.00 0.00 0.00 0.00 0.00 0.00 0.00 0.00 0.00 0.00 0.00 0.00 0.00 0.00 0.00 0.00 0.00 0.00 0.00 0.00 0.00 0.00 0.00
0.09 0.06 0.01 0.01 0.01 0.01 0.01 0.01 0.00 0.00 0.00 0.00 0.00 0.00 0.00 0.00 0.00 0.00 0.00 0.00 0.00 0.00 0.00 0.00 0.00 0.00 0.00 0.00 0.00 0.00 0.00 0.00 0.00 0.00 0.00 0.00 0.00 0.00 0.00 0.00 0.00 0.00 0.00 0.00
0.06 0.03 0.01 0.01 0.02 0.02 0.01 0.01 0.00 0.00 0.00 0.00 0.00 0.00 0.00 0.00 0.00 0.00 0.00 0.00 0.00 0.00 0.00 0.00 0.00 0.00 0.00 0.00 0.00 0.00 0.00 0.00 0.00 0.00 0.00 0.00 0.00 0.00 0.00 0.00 0.00 0.00 0.00 0.00
0.05 0.01 0.01 0.02 0.02 0.02 0.01 0.00 0.00 0.01 0.01 0.00 0.00 0.00 0.00 0.00 0.00 0.00 0.00 0.00 0.00 0.00 0.00 0.00 0.00 0.00 0.00 0.00 0.00 0.00 0.00 0.00 0.00 0.00 0.00 0.00 0.00 0.00 0.00 0.00 0.00 0.00 0.00 0.00
0.08 0.02 0.01 0.02 0.01 0.01 0.01 0.00 0.01 0.01 0.01 0.01 0.01 0.00 0.00 0.00 0.00 0.00 0.00 0.00 0.00 0.00 0.00 0.00 0.00 0.00 0.00 0.00 0.00 0.00 0.00 0.00 0.00 0.00 0.00 0.00 0.00 0.00 0.00 0.00 0.00 0.00 0.00 0.00
0.07 0.03 0.01 0.01 0.01 0.01 0.01 0.01 0.02 0.02 0.03 0.04 0.01 0.00 0.00 0.00 0.00 0.00 0.00 0.00 0.00 0.00 0.00 0.00 0.00 0.00 0.00 0.00 0.00 0.00 0.00 0.00 0.00 0.00 0.00 0.00 0.00 0.00 0.00 0.00 0.00 0.00 0.00 0.00
0.14 0.06 0.03 0.01 0.02 0.03 0.02 0.03 0.08 0.10 0.09 0.04 0.00 0.00 0.00 0.00 0.00 0.00 0.00 0.00 0.00 0.00 0.00 0.00 0.00 0.00 0.00 0.00 0.00 0.00 0.00 0.00 0.00 0.00 0.00 0.00 0.00 0.00 0.00 0.00 0.00 0.00 0.00 0.00
0.14 0.09 0.04 0.02 0.02 0.04 0.03 0.02 0.04 0.05 0.03 0.00 0.00 0.00 0.00 0.00 0.00 0.00 0.00 0.00 0.00 0.00 0.00 0.00 0.00 0.00 0.00 0.00 0.00 0.00 0.00 0.00 0.00 0.00 0.00 0.00 0.00 0.00 0.00 0.00 0.00 0.00 0.00 0.00
0.05 0.03 0.01 0.01 0.01 0.01 0.02 0.01 0.01 0.02 0.01 0.00 0.00 0.00 0.00 0.00 0.00 0.00 0.00 0.00 0.00 0.00 0.00 0.00 0.00 0.00 0.00 0.00 0.00 0.00 0.00 0.00 0.00 0.00 0.00 0.00 0.00 0.00 0.00 0.00 0.00 0.00 0.00 0.00
0.02 0.02 0.01 0.01 0.02 0.02 0.01 0.01 0.02 0.04 0.03 0.01 0.00 0.00 0.00 0.00 0.00 0.00 0.00 0.00 0.00 0.00 0.00 0.00 0.00 0.00 0.00 0.00 0.00 0.00 0.00 0.00 0.00 0.00 0.00 0.00 0.00 0.00 0.00 0.00 0.00 0.00 0.00 0.00
0.05 0.04 0.03 0.02 0.03 0.03 0.02 0.02 0.03 0.03 0.02 0.01 0.00 0.00 0.00 0.00 0.00 0.00 0.00 0.00 0.00 0.00 0.00 0.00 0.00 0.00 0.00 0.00 0.00 0.00 0.00 0.00 0.00 0.00 0.00 0.00 0.00 0.00 0.00 0.00 0.00 0.00 0.00 0.00
0.07 0.06 0.04 0.02 0.01 0.01 0.01 0.01 0.01 0.02 0.02 0.00 0.00 0.00 0.00 0.00 0.00 0.00 0.00 0.00 0.00 0.00 0.00 0.00 0.00 0.00 0.00 0.00 0.00 0.00 0.00 0.00 0.00 0.00 0.00 0.00 0.00 0.00 0.00 0.00 0.00 0.00 0.00 0.00
0.08 0.09 0.09 0.12 0.07 0.03 0.02 0.01 0.01 0.00 0.01 0.00 0.00 0.00 0.00 0.00 0.00 0.00 0.00 0.00 0.00 0.00 0.00 0.00 0.00 0.00 0.00 0.00 0.00 0.00 0.00 0.00 0.00 0.00 0.00 0.00 0.00 0.00 0.00 0.00 0.00 0.00 0.00 0.00
0.05 0.07 0.05 0.05 0.04 0.02 0.01 0.00 0.00 0.01 0.02 0.01 0.00 0.00 0.00 0.00 0.00 0.00 0.00 0.00 0.00 0.00 0.00 0.00 0.00 0.00 0.00 0.00 0.00 0.00 0.00 0.00 0.00 0.00 0.00 0.00 0.00 0.00 0.00 0.00 0.00 0.00 0.01 0.01
0.11 0.11 0.04 0.01 0.00 0.00 0.00 0.00 0.00 0.00 0.00 0.00 0.00 0.00 0.00 0.00 0.00 0.00 0.00 0.00 0.00 0.00 0.00 0.00 0.00 0.00 0.00 0.00 0.00 0.00 0.00 0.00 0.00 0.00 0.00 0.00 0.00 0.00 0.00 0.00 0.01 0.00 0.01 0.01
0.15 0.12 0.06 0.03 0.01 0.01 0.01 0.00 0.00 0.01 0.00 0.00 0.00 0.00 0.00 0.00 0.00 0.00 0.00 0.00 0.00 0.00 0.00 0.00 0.00 0.00 0.00 0.00 0.00 0.00 0.00 0.00 0.00 0.00 0.00 0.00 0.00 0.00 0.00 0.00 0.00 0.01 0.01 0.01
0.15 0.10 0.06 0.06 0.03 0.04 0.04 0.01 0.00 0.00 0.00 0.00 0.00 0.00 0.00 0.00 0.00 0.00 0.00 0.00 0.00 0.00 0.00 0.00 0.00 0.00 0.00 0.00 0.00 0.00 0.00 0.00 0.00 0.00 0.00 0.00 0.00 0.00 0.00 0.00 0.00 0.01 0.01 0.01
0.13 0.11 0.08 0.07 0.07 0.10 0.04 0.00 0.00 0.00 0.00 0.00 0.00 0.00 0.00 0.00 0.00 0.00 0.00 0.00 0.00 0.00 0.00 0.00 0.00 0.00 0.00 0.00 0.00 0.00 0.00 0.00 0.00 0.00 0.00 0.00 0.00 0.00 0.00 0.00 0.00 0.01 0.01 0.01
0.11 0.12 0.15 0.12 0.09 0.04 0.00 0.00 0.00 0.00 0.00 0.00 0.00 0.00 0.00 0.00 0.00 0.00 0.00 0.00 0.00 0.00 0.00 0.00 0.00 0.00 0.00 0.00 0.00 0.00 0.00 0.00 0.00 0.00 0.00 0.00 0.00 0.00 0.00 0.00 0.00 0.00 0.01 0.01
0.10 0.13 0.17 0.12 0.08 0.03 0.00 0.00 0.00 0.00 0.00 0.00 0.00 0.00 0.00 0.00 0.00 0.00 0.00 0.00 0.00 0.00 0.00 0.00 0.00 0.00 0.00 0.00 0.00 0.00 0.00 0.00 0.00 0.00 0.00 0.00 0.00 0.00 0.00 0.00 0.00 0.00 0.00 0.01
0.16 0.21 0.20 0.10 0.04 0.01 0.00 0.00 0.00 0.00 0.00 0.00 0.00 0.00 0.00 0.00 0.00 0.00 0.00 0.00 0.00 0.00 0.00 0.00 0.00 0.00 0.00 0.00 0.00 0.00 0.00 0.00 0.00 0.00 0.00 0.00 0.00 0.00 0.00 0.00 0.00 0.00 0.00 0.00
0.07 0.11 0.10 0.06 0.03 0.00 0.00 0.00 0.00 0.00 0.00 0.00 0.00 0.00 0.00 0.00 0.00 0.00 0.00 0.00 0.00 0.00 0.00 0.00 0.00 0.00 0.00 0.00 0.00 0.00 0.00 0.00 0.00 0.00 0.00 0.00 0.00 0.00 0.00 0.00 0.00 0.00 0.00 0.00
0.01 0.01 0.01 0.01 0.01 0.00 0.00 0.00 0.00 0.00 0.00 0.00 0.00 0.00 0.00 0.00 0.00 0.00 0.00 0.00 0.00 0.00 0.00 0.00 0.00 0.00 0.00 0.00 0.00 0.00 0.00 0.00 0.00 0.00 0.00 0.00 0.00 0.00 0.00 0.00 0.00 0.00 0.00 0.00
0.00 0.00 0.00 0.00 0.00 0.00 0.00 0.00 0.00 0.00 0.00 0.00 0.00 0.00 0.00 0.00 0.00 0.00 0.00 0.00 0.00 0.00 0.00 0.00 0.00 0.00 0.00 0.00 0.00 0.00 0.00 0.00 0.00 0.00 0.00 0.00 0.00 0.00 0.00 0.00 0.00 0.00 0.00 0.00
0.01 0.00 0.00 0.00 0.00 0.00 0.00 0.00 0.00 0.00 0.00 0.00 0.00 0.00 0.00 0.00 0.00 0.00 0.00 0.00 0.00 0.00 0.00 0.00 0.00 0.00 0.00 0.00 0.00 0.00 0.00 0.00 0.00 0.00 0.00 0.00 0.00 0.00 0.00 0.00 0.00 0.00 0.00 0.00
0.02 0.01 0.01 0.00 0.00 0.00 0.00 0.00 0.00 0.00 0.00 0.00 0.00 0.00 0.00 0.00 0.00 0.00 0.00 0.00 0.00 0.00 0.00 0.00 0.00 0.00 0.00 0.00 0.00 0.00 0.00 0.00 0.00 0.00 0.00 0.00 0.00 0.00 0.00 0.00 0.00 0.00 0.00 0.01
MSLP
1013.79 1014.19 1014.48 1014.68 1014.84 1015.01 1015.21 1015.47 1015.76 1016.04 1016.25 1016.32 1016.22 1015.92 1015.45 1014.85 1014.21 1013.61 1013.13 1012.84 1012.76 1012.91 1013.24 1013.73 1014.31 1014.93 1015.56 1016.17 1016.77 1017.35 1017.94 1018.53 1019.13 1019.73 1020.30 1020.84 1021.30 1021.69 1021.99 1022.22 1022.41 1022.59 1022.79 1023.06
1013.16 1013.50 1013.76 1013.96 1014.15 1014.38 1014.68 1015.04 1015.44 1015.81 1016.09 1016.20 1016.09 1015.76 1015.22 1014.52 1013.77 1013.07 1012.50 1012.13 1012.00 1012.12 1012.44 1012.93 1013.52 1014.15 1014.79 1015.41 1016.02 1016.62 1017.23 1017.85 1018.50 1019.15 1019.78 1020.36 1020.87 1021.28 1021.58 1021.80 1021.97 1022.12 1022.30 1022.55
1012.37 1012.70 1012.97 1013.21 1013.48 1013.80 1014.21 1014.68 1015.18 1015.62 1015.94 1016.06 1015.93 1015.53 1014.92 1014.14 1013.31 1012.52 1011.89 1011.47 1011.31 1011.40 1011.71 1012.19 1012.76 1013.37 1013.99 1014.59 1015.17 1015.76 1016.37 1017.00 1017.67 1018.36 1019.03 1019.66 1020.21 1020.65 1020.98 1021.22 1021.39 1021.54 1021.72 1021.96
1011.50 1011.85 1012.18 1012.51 1012.89 1013.34 1013.86 1014.44 1015.01 1015.49 1015.81 1015.89 1015.70 1015.24 1014.53 1013.67 1012.77 1011.93 1011.26 1010.81 1010.63 1010.70 1011.00 1011.44 1011.98 1012.56 1013.13 1013.68 1014.22 1014.77 1015.35 1015.97 1016.64 1017.34 1018.04 1018.71 1019.29 1019.78 1020.15 1020.43 1020.64 1020.82 1021.01 1021.27
1010.58 1011.00 1011.44 1011.90 1012.42 1013.01 1013.66 1014.32 1014.93 1015.42 1015.69 1015.70 1015.42 1014.85 1014.05 1013.11 1012.14 1011.26 1010.56 1010.10 1009.91 1009.97 1010.25 1010.67 1011.16 1011.69 1012.20 1012.69 1013.17 1013.67 1014.20 1014.80 1015.45 1016.15 1016.86 1017.54 1018.16 1018.69 1019.11 1019.44 1019.70 1019.92 1020.16 1020.44
1009.64 1010.17 1010.74 1011.36 1012.05 1012.79 1013.56 1014.29 1014.92 1015.36 1015.56 1015.46 1015.05 1014.36 1013.45 1012.44 1011.42 1010.51 1009.80 1009.34 1009.15 1009.21 1009.47 1009.85 1010.31 1010.78 1011.23 1011.66 1012.08 1012.52 1013.01 1013.56 1014.18 1014.85 1015.55 1016.24 1016.88 1017.44 1017.90 1018.28 1018.60 1018.88 1019.16 1019.47
1008.68 1009.33 1010.06 1010.87 1011.73 1012.62 1013.49 1014.27 1014.89 1015.27 1015.36 1015.13 1014.58 1013.76 1012.76 1011.68 1010.62 1009.70 1009.00 1008.56 1008.38 1008.44 1008.68 1009.05 1009.47 1009.89 1010.30 1010.68 1011.05 1011.44 1011.88 1012.38 1012.95 1013.58 1014.25 1014.92 1015.55 1016.11 1016.60 1017.02 1017.38 1017.71 1018.03 1018.38
1007.70 1008.48 1009.37 1010.35 1011.38 1012.41 1013.37 1014.18 1014.77 1015.07 1015.05 1014.68 1014.00 1013.08 1011.99 1010.86 1009.80 1008.89 1008.22 1007.81 1007.65 1007.73 1007.98 1008.33 1008.73 1009.12 1009.49 1009.84 1010.17 1010.52 1010.91 1011.36 1011.87 1012.45 1013.06 1013.67 1014.27 1014.81 1015.30 1015.73 1016.12 1016.48 1016.83 1017.21
1006.70 1007.59 1008.63 1009.76 1010.94 1012.08 1013.11 1013.94 1014.49 1014.71 1014.57 1014.09 1013.31 1012.31 1011.18 1010.05 1009.01 1008.15 1007.53 1007.17 1007.07 1007.17 1007.43 1007.78 1008.17 1008.55 1008.90 1009.22 1009.52 1009.84 1010.19 1010.58 1011.03 1011.53 1012.06 1012.60 1013.12 1013.61 1014.07 1014.48 1014.87 1015.24 1015.62 1016.02
1005.70 1006.67 1007.82 1009.08 1010.36 1011.59 1012.66 1013.49 1014.00 1014.15 1013.93 1013.37 1012.53 1011.50 1010.38 1009.29 1008.32 1007.54 1007.01 1006.73 1006.68 1006.82 1007.10 1007.45 1007.84 1008.21 1008.55 1008.86 1009.15 1009.44 1009.75 1010.09 1010.46 1010.87 1011.29 1011.73 1012.16 1012.57 1012.96 1013.33 1013.70 1014.07 1014.46 1014.88
1004.74 1005.76 1006.97 1008.31 1009.66 1010.93 1012.01 1012.82 1013.28 1013.38 1013.10 1012.51 1011.66 1010.66 1009.61 1008.62 1007.76 1007.10 1006.68 1006.48 1006.50 1006.69 1006.99 1007.35 1007.73 1008.10 1008.44 1008.74 1009.02 1009.29 1009.56 1009.84 1010.13 1010.44 1010.76 1011.08 1011.40 1011.71 1012.02 1012.35 1012.68 1013.04 1013.43 1013.86
1003.88 1004.91 1006.15 1007.50 1008.87 1010.14 1011.20 1011.97 1012.39 1012.44 1012.14 1011.55 1010.75 1009.83 1008.90 1008.04 1007.33 1006.81 1006.51 1006.41 1006.49 1006.71 1007.02 1007.39 1007.76 1008.12 1008.45 1008.75 1009.02 1009.28 1009.51 1009.74 1009.97 1010.18 1010.40 1010.60 1010.82 1011.04 1011.27 1011.54 1011.84 1012.19 1012.59 1013.03
1003.18 1004.19 1005.40 1006.73 1008.06 1009.28 1010.28 1010.99 1011.35 1011.37 1011.08 1010.53 1009.81 1009.01 1008.23 1007.53 1006.98 1006.61 1006.42 1006.41 1006.54 1006.78 1007.09 1007.44 1007.79 1008.13 1008.45 1008.75 1009.02 1009.27 1009.49 1009.69 1009.86 1010.01 1010.14 1010.26 1010.39 1010.53 1010.71 1010.94 1011.23 1011.57 1011.98 1012.44
1002.66 1003.61 1004.76 1006.02 1007.26 1008.39 1009.30 1009.93 1010.24 1010.23 1009.95 1009.46 1008.85 1008.19 1007.56 1007.04 1006.65 1006.41 1006.33 1006.38 1006.53 1006.77 1007.05 1007.36 1007.68 1008.00 1008.31 1008.61 1008.90 1009.16 1009.39 1009.58 1009.73 1009.85 1009.94 1010.01 1010.09 1010.20 1010.35 1010.56 1010.84 1011.20 1011.62 1012.11
1002.31 1003.18 1004.24 1005.39 1006.51 1007.51 1008.30 1008.82 1009.06 1009.03 1008.77 1008.36 1007.85 1007.34 1006.87 1006.50 1006.25 1006.12 1006.11 1006.19 1006.34 1006.55 1006.79 1007.05 1007.33 1007.63 1007.93 1008.25 1008.56 1008.86 1009.13 1009.36 1009.54 1009.67 1009.76 1009.84 1009.91 1010.01 1010.17 1010.39 1010.69 1011.07 1011.52 1012.02
1002.08 1002.87 1003.80 1004.80 1005.77 1006.61 1007.26 1007.66 1007.83 1007.77 1007.53 1007.19 1006.79 1006.41 1006.08 1005.85 1005.71 1005.66 1005.69 1005.78 1005.91 1006.06 1006.25 1006.46 1006.70 1006.98 1007.30 1007.65 1008.01 1008.38 1008.73 1009.03 1009.28 1009.47 1009.62 1009.73 1009.84 1009.98 1010.17 1010.42 1010.75 1011.16 1011.62 1012.13
1001.92 1002.59 1003.38 1004.21 1005.00 1005.66 1006.15 1006.44 1006.52 1006.43 1006.22 1005.94 1005.64 1005.38 1005.17 1005.05 1005.00 1005.00 1005.05 1005.13 1005.22 1005.33 1005.46 1005.62 1005.84 1006.12 1006.47 1006.87 1007.32 1007.78 1008.23 1008.64 1008.99 1009.28 1009.52 1009.71 1009.88 1010.08 1010.31 1010.60 1010.97 1011.39 1011.87 1012.37
1001.75 1002.28 1002.91 1003.55 1004.14 1004.62 1004.95 1005.11 1005.12 1005.00 1004.81 1004.59 1004.39 1004.23 1004.13 1004.10 1004.12 1004.16 1004.23 1004.29 1004.36 1004.43 1004.52 1004.67 1004.88 1005.19 1005.58 1006.06 1006.60 1007.17 1007.74 1008.27 1008.74 1009.14 1009.48 1009.76 1010.02 1010.27 1010.55 1010.88 1011.26 1011.69 1012.15 1012.64
1001.53 1001.91 1002.35 1002.79 1003.18 1003.47 1003.64 1003.68 1003.62 1003.49 1003.32 1003.16 1003.04 1002.98 1002.98 1003.03 1003.12 1003.22 1003.31 1003.38 1003.45 1003.51 1003.61 1003.77 1004.01 1004.36 1004.82 1005.38 1006.01 1006.68 1007.36 1008.00 1008.58 1009.08 1009.51 1009.88 1010.20 1010.51 1010.82 1011.16 1011.54 1011.96 1012.39 1012.84
1001.27 1001.47 1001.71 1001.95 1002.13 1002.25 1002.27 1002.21 1002.09 1001.95 1001.80 1001.70 1001.66 1001.70 1001.79 1001.94 1002.10 1002.27 1002.42 1002.54 1002.65 1002.76 1002.90 1003.11 1003.40 1003.81 1004.33 1004.96 1005.66 1006.41 1007.16 1007.88 1008.53 1009.10 1009.60 1010.01 1010.38 1010.72 1011.04 1011.38 1011.75 1012.12 1012.52 1012.91
1000.99 1001.01 1001.06 1001.10 1001.10 1001.05 1000.95 1000.80 1000.63 1000.47 1000.36 1000.31 1000.35 1000.47 1000.66 1000.90 1001.17 1001.43 1001.68 1001.89 1002.09 1002.29 1002.52 1002.80 1003.17 1003.64 1004.22 1004.89 1005.63 1006.40 1007.18 1007.91 1008.58 1009.18 1009.69 1010.12 1010.50 1010.84 1011.17 1011.49 1011.82 1012.16 1012.50 1012.83
1000.78 1000.63 1000.50 1000.37 1000.21 1000.02 999.80 999.57 999.36 999.19 999.10 999.10 999.21 999.41 999.70 1000.05 1000.43 1000.81 1001.19 1001.53 1001.86 1002.19 1002.53 1002.92 1003.38 1003.90 1004.51 1005.19 1005.91 1006.65 1007.38 1008.07 1008.70 1009.26 1009.74 1010.16 1010.53 1010.85 1011.16 1011.46 1011.76 1012.05 1012.34 1012.63
1000.72 1000.44 1000.16 999.89 999.60 999.30 998.99 998.70 998.45 998.27 998.19 998.22 998.38 998.65 999.02 999.48 999.97 1000.49 1001.01 1001.51 1002.00 1002.48 1002.96 1003.45 1003.98 1004.55 1005.15 1005.79 1006.44 1007.09 1007.72 1008.31 1008.84 1009.32 1009.74 1010.12 1010.45 1010.76 1011.05 1011.33 1011.60 1011.87 1012.12 1012.37
1000.89 1000.52 1000.15 999.78 999.41 999.03 998.66 998.31 998.03 997.83 997.74 997.78 997.96 998.28 998.71 999.25 999.85 1000.50 1001.16 1001.83 1002.48 1003.10 1003.72 1004.31 1004.90 1005.48 1006.04 1006.60 1007.14 1007.65 1008.13 1008.58 1008.98 1009.35 1009.68 1010.00 1010.30 1010.59 1010.88 1011.16 1011.43 1011.68 1011.91 1012.13
1001.33 1000.94 1000.54 1000.14 999.72 999.30 998.89 998.51 998.19 997.96 997.84 997.87 998.04 998.36 998.82 999.41 1000.09 1000.84 1001.63 1002.43 1003.22 1003.99 1004.71 1005.38 1006.00 1006.57 1007.07 1007.52 1007.92 1008.27 1008.58 1008.86 1009.11 1009.36 1009.61 1009.87 1010.15 1010.44 1010.73 1011.03 1011.31 1011.57 1011.80 1011.99
1002.07 1001.72 1001.35 1000.97 1000.56 1000.13 999.71 999.30 998.95 998.68 998.52 998.50 998.64 998.93 999.38 999.97 1000.69 1001.50 1002.37 1003.27 1004.16 1005.02 1005.82 1006.55 1007.18 1007.71 1008.14 1008.47 1008.72 1008.90 1009.04 1009.16 1009.28 1009.41 1009.59 1009.81 1010.07 1010.37 1010.69 1011.02 1011.32 1011.60 1011.82 1012.00
Thickness
5576 5578 5589 5608 5618 5627 5628 5626 5628 5639 5651 5647 5647 5654 5668 5678 5682 5686 5690 5695 5699 5703 5707 5706 5705 5703 5700 5698 5696 5693 5689 5686 5683 5679 5676 5674 5673 5672 5672 5672 5671 5669 5667 5665
5564 5578 5605 5610 5610 5613 5616 5619 5625 5634 5642 5641 5640 5648 5664 5675 5680 5686 5690 5693 5697 5702 5703 5704 5703 5702 5700 5698 5697 5695 5692 5688 5686 5683 5680 5677 5674 5673 5673 5672 5671 5670 5667 5665
5576 5598 5602 5598 5598 5600 5606 5612 5619 5623 5627 5630 5628 5632 5653 5671 5680 5687 5692 5696 5699 5701 5702 5702 5702 5701 5699 5698 5698 5697 5694 5690 5687 5684 5680 5676 5673 5673 5672 5671 5671 5670 5667 5665
5572 5590 5589 5588 5592 5598 5600 5614 5615 5612 5606 5606 5613 5612 5650 5668 5675 5683 5689 5693 5697 5701 5703 5703 5702 5700 5700 5700 5699 5697 5694 5692 5688 5684 5682 5679 5678 5677 5677 5674 5671 5669 5667 5665
5569 5582 5584 5584 5595 5599 5601 5607 5603 5600 5596 5594 5605 5604 5635 5664 5670 5682 5689 5693 5697 5699 5701 5702 5703 5703 5702 5700 5697 5696 5693 5692 5690 5686 5684 5681 5680 5680 5678 5674 5671 5669 5666 5664
5569 5580 5584 5590 5594 5592 5590 5587 5582 5581 5578 5574 5599 5598 5622 5653 5671 5681 5690 5695 5697 5699 5700 5702 5703 5702 5700 5698 5695 5693 5691 5691 5690 5687 5684 5682 5681 5679 5676 5675 5672 5669 5666 5663
5550 5562 5576 5584 5575 5573 5576 5567 5556 5554 5557 5573 5603 5597 5625 5661 5678 5683 5687 5692 5696 5698 5698 5698 5698 5697 5697 5695 5694 5692 5690 5689 5689 5687 5685 5684 5682 5679 5677 5676 5674 5670 5666 5664
5546 5550 5567 5577 5578 5572 5574 5574 5566 5560 5563 5577 5589 5594 5632 5663 5674 5681 5685 5688 5691 5693 5694 5695 5696 5695 5694 5693 5691 5690 5689 5688 5687 5686 5686 5684 5681 5678 5677 5676 5674 5671 5669 5666
5553 5558 5567 5574 5580 5574 5563 5566 5582 5570 5561 5566 5579 5604 5635 5653 5660 5667 5671 5675 5678 5682 5685 5687 5689 5690 5689 5688 5688 5687 5686 5685 5684 5684 5683 5681 5680 5677 5676 5674 5671 5669 5667 5664
5564 5555 5559 5562 5563 5565 5569 5568 5557 5553 5550 5556 5578 5593 5618 5638 5646 5654 5659 5664 5669 5673 5676 5679 5681 5682 5683 5683 5683 5681 5681 5680 5680 5679 5679 5678 5677 5676 5673 5670 5667 5666 5663 5659
5557 5550 5547 5548 5553 5559 5559 5556 5558 5556 5556 5559 5566 5594 5642 5644 5648 5650 5655 5660 5664 5666 5667 5669 5671 5672 5673 5673 5673 5673 5672 5672 5672 5672 5672 5671 5671 5670 5668 5665 5664 5661 5657 5654
5546 5543 5539 5546 5558 5564 5562 5563 5560 5554 5553 5568 5571 5591 5641 5646 5646 5648 5650 5654 5656 5658 5658 5659 5660 5660 5660 5661 5662 5663 5663 5663 5664 5663 5663 5664 5664 5663 5661 5660 5657 5654 5650 5647
5541 5531 5526 5521 5525 5540 5551 5560 5563 5565 5556 5554 5558 5588 5630 5630 5634 5638 5640 5642 5642 5645 5646 5646 5647 5647 5648 5649 5650 5652 5653 5654 5653 5653 5653 5653 5653 5653 5653 5652 5650 5646 5643 5639
5542 5530 5536 5544 5554 5554 5551 5555 5559 5555 5546 5552 5567 5595 5613 5618 5621 5626 5628 5630 5632 5633 5634 5635 5635 5636 5637 5639 5640 5641 5642 5643 5642 5642 5642 5642 5643 5643 5643 5642 5639 5636 5633 5629
5534 5527 5537 5552 5559 5553 5551 5553 5556 5556 5560 5559 5578 5592 5610 5613 5616 5620 5623 5624 5625 5626 5627 5628 5628 5627 5627 5628 5629 5630 5631 5631 5631 5630 5631 5632 5631 5630 5629 5628 5626 5624 5621 5618
5525 5523 5527 5532 5546 5548 5544 5549 5552 5557 5563 5569 5578 5594 5618 5614 5613 5613 5615 5617 5618 5620 5621 5622 5622 5622 5621 5621 5621 5620 5620 5620 5619 5619 5619 5618 5617 5615 5614 5613 5611 5609 5606 5603
5515 5515 5517 5520 5529 5528 5526 5550 5557 5561 5569 5572 5576 5603 5611 5603 5603 5607 5610 5612 5614 5615 5616 5617 5617 5616 5615 5614 5614 5612 5611 5608 5607 5606 5604 5602 5601 5600 5598 5597 5595 5593 5591 5588
5505 5505 5507 5506 5508 5507 5542 5561 5560 5562 5569 5576 5585 5600 5600 5598 5599 5602 5606 5606 5607 5609 5610 5611 5609 5609 5608 5607 5605 5603 5600 5596 5593 5591 5589 5587 5586 5585 5582 5581 5580 5578 5575 5573
5500 5498 5495 5497 5502 5510 5538 5556 5562 5559 5565 5578 5583 5593 5592 5590 5588 5593 5601 5602 5602 5603 5603 5602 5601 5600 5599 5596 5593 5589 5585 5582 5580 5578 5576 5574 5572 5570 5568 5567 5565 5562 5560 5558
5491 5492 5491 5493 5498 5508 5549 5564 5566 5552 5552 5582 5584 5587 5583 5576 5572 5592 5594 5592 5591 5591 5590 5590 5589 5587 5584 5581 5577 5573 5570 5568 5567 5566 5563 5561 5559 5557 5555 5553 5551 5548 5545 5543
5478 5480 5487 5492 5496 5514 5551 5557 5553 5537 5567 5583 5581 5583 5578 5576 5586 5589 5581 5579 5579 5578 5577 5576 5574 5570 5568 5564 5561 5559 5557 5555 5554 5552 5550 5547 5545 5543 5541 5538 5535 5533 5530 5526
5481 5482 5486 5489 5493 5514 5548 5548 5549 5561 5571 5571 5575 5577 5575 5577 5575 5570 5567 5564 5563 5560 5558 5557 5553 5550 5548 5547 5546 5545 5542 5541 5539 5537 5535 5533 5531 5529 5526 5524 5521 5517 5514 5511
5482 5491 5493 5500 5515 5531 5539 5542 5546 5551 5554 5556 5558 5562 5566 5564 5560 5557 5551 5547 5544 5541 5538 5535 5534 5531 5529 5529 5530 5529 5526 5525 5523 5522 5520 5518 5516 5514 5511 5509 5506 5503 5500 5497
5477 5487 5490 5494 5505 5515 5519 5524 5528 5534 5536 5538 5541 5545 5549 5548 5544 5537 5531 5525 5522 5519 5517 5516 5515 5513 5511 5511 5511 5511 5510 5509 5508 5507 5504 5502 5500 5498 5495 5493 5492 5489 5486 5483
5457 5468 5477 5485 5490 5496 5500 5503 5506 5510 5512 5515 5517 5522 5527 5527 5523 5518 5511 5507 5503 5500 5498 5498 5497 5496 5493 5493 5492 5493 5493 5494 5493 5491 5488 5486 5485 5483 5480 5477 5476 5473 5472 5470
5426 5435 5456 5470 5465 5473 5482 5483 5487 5491 5494 5495 5497 5498 5500 5503 5501 5497 5492 5487 5484 5481 5480 5479 5478 5477 5475 5474 5473 5474 5476 5478 5478 5475 5473 5471 5469 5467 5464 5462 5459 5458 5456 5454